START_TIME,STEP,MOV.,M6,t_acc.,M7,t_acc.,M19,t_acc.,H36,t_acc.
1989-08-26T12:00:27.760 ,2,0,0.,12.0,0.,12.0,0.,12.0,0.,12.0
1989-08-26T12:00:39.760 ,2,0,0.,12.0,0.,12.0,0.,12.0,0.,12.0
1989-08-26T12:00:51.760 ,1,1,0.,12.0,0.,12.0,0.,12.0,0.,12.0
1989-08-26T12:01:03.760 ,1,1,0.,12.0,0.,12.0,0.,12.0,0.,12.0
1989-08-26T12:01:15.760 ,1,0,0.,12.0,0.,12.0,0.,12.0,0.,12.0
1989-08-26T12:01:27.760 ,1,0,0.,12.0,0.,12.0,0.,12.0,0.,12.0
1989-08-26T12:01:39.760 ,0,1,0.,12.0,0.,12.0,0.,12.0,0.,12.0
1989-08-26T12:01:51.760 ,0,1,0.,12.0,0.,12.0,0.,12.0,0.,12.0
1989-08-26T12:02:03.760 ,0,0,0.,12.0,0.,12.0,0.,12.0,0.,12.0
1989-08-26T12:02:15.760 ,0,0,0.,12.0,0.,12.0,0.,12.0,0.,12.0
1989-08-26T12:02:27.760 ,0,1,0.,12.0,0.,12.0,0.,12.0,0.,12.0
1989-08-26T12:02:39.760 ,0,1,0.,12.0,0.,12.0,0.,12.0,0.,12.0
1989-08-26T12:02:51.760 ,0,0,0.,12.0,0.,12.0,0.,12.0,0.,12.0
1989-08-26T12:03:03.760 ,0,0,0.,12.0,0.,12.0,0.,12.0,0.,12.0
1989-08-26T12:03:15.760 ,1,1,0.,12.0,0.,12.0,0.,12.0,0.,12.0
1989-08-26T12:03:27.760 ,1,1,0.,12.0,0.,12.0,0.,12.0,0.,12.0
1989-08-26T12:03:39.760 ,1,0,0.,12.0,0.,12.0,0.,12.0,0.,12.0
1989-08-26T12:03:51.760 ,1,0,0.,12.0,0.,12.0,0.,12.0,0.,12.0
1989-08-26T12:04:03.760 ,2,1,0.,12.0,0.,12.0,0.,12.0,0.,12.0
1989-08-26T12:04:15.760 ,2,1,0.,12.0,0.,12.0,0.,12.0,0.,12.0
1989-08-26T12:04:27.760 ,2,0,0.,12.0,0.,12.0,0.,12.0,0.,12.0
1989-08-26T12:04:39.760 ,2,0,0.,12.0,0.,12.0,0.,12.0,0.,12.0
1989-08-26T12:04:51.760 ,3,1,0.,12.0,0.,12.0,0.,12.0,0.,12.0
1989-08-26T12:05:03.760 ,3,1,0.,12.0,0.,12.0,0.,12.0,0.,12.0
1989-08-26T12:05:15.760 ,3,0,0.,12.0,0.,12.0,0.,12.0,0.,12.0
1989-08-26T12:05:27.760 ,3,0,0.,12.0,0.,12.0,0.,12.0,0.,12.0
1989-08-26T12:05:39.760 ,4,1,0.,12.0,0.,12.0,0.,12.0,0.,12.0
1989-08-26T12:05:51.760 ,4,1,0.,12.0,0.,12.0,0.,12.0,0.,12.0
1989-08-26T12:06:03.760 ,4,0,0.,12.0,0.,12.0,0.,12.0,0.,12.0
1989-08-26T12:06:15.760 ,4,0,0.,12.0,0.,12.0,0.,12.0,0.,12.0
1989-08-26T12:06:27.760 ,5,1,0.,12.0,0.,12.0,0.,12.0,0.,12.0
1989-08-26T12:06:39.760 ,5,1,0.,12.0,0.,12.0,0.,12.0,0.,12.0
1989-08-26T12:06:51.760 ,5,0,0.,12.0,0.,12.0,0.,12.0,0.,12.0
1989-08-26T12:07:03.760 ,5,0,0.,12.0,0.,12.0,0.,12.0,0.,12.0
1989-08-26T12:07:15.760 ,6,1,0.,12.0,0.,12.0,0.,12.0,0.,12.0
1989-08-26T12:07:27.760 ,6,1,0.,12.0,0.,12.0,0.,12.0,0.,12.0
1989-08-26T12:07:39.760 ,6,0,0.,12.0,0.,12.0,0.,12.0,0.,12.0
1989-08-26T12:07:51.760 ,6,0,0.,12.0,0.,12.0,0.,12.0,0.,12.0
1989-08-26T12:08:03.760 ,7,1,0.,12.0,0.,12.0,0.,12.0,0.,12.0
1989-08-26T12:08:15.760 ,7,1,0.,12.0,0.,12.0,0.,12.0,0.,12.0
1989-08-26T12:08:27.760 ,7,0,0.,12.0,0.,12.0,0.,12.0,0.,12.0
1989-08-26T12:08:39.760 ,7,0,0.,12.0,0.,12.0,0.,12.0,0.,12.0
1989-08-26T12:08:51.760 ,7,1,0.,12.0,0.,12.0,0.,12.0,0.,12.0
1989-08-26T12:09:03.760 ,7,1,0.,12.0,0.,12.0,0.,12.0,0.,12.0
1989-08-26T12:09:15.760 ,7,0,0.,12.0,0.,12.0,0.,12.0,0.,12.0
1989-08-26T12:09:27.760 ,7,0,0.,12.0,0.,12.0,0.,12.0,0.,12.0
1989-08-26T12:09:39.760 ,6,1,0.,12.0,0.,12.0,0.,12.0,0.,12.0
1989-08-26T12:09:51.760 ,6,1,0.,12.0,0.,12.0,0.,12.0,0.,12.0
1989-08-26T12:10:03.760 ,6,0,0.,12.0,0.,12.0,0.,12.0,0.,12.0
1989-08-26T12:10:15.760 ,6,0,0.,12.0,0.,12.0,0.,12.0,0.,12.0
1989-08-26T12:10:27.760 ,5,1,0.,12.0,0.,12.0,0.,12.0,0.,12.0
1989-08-26T12:10:39.760 ,5,1,0.,12.0,0.,12.0,0.,12.0,0.,12.0
1989-08-26T12:10:51.760 ,5,0,0.,12.0,0.,12.0,0.,12.0,0.,12.0
1989-08-26T12:11:03.760 ,5,0,0.,12.0,0.,12.0,0.,12.0,0.,12.0
1989-08-26T12:11:15.760 ,4,1,0.,12.0,0.,12.0,0.,12.0,0.,12.0
1989-08-26T12:11:27.760 ,4,1,0.,12.0,0.,12.0,0.,12.0,0.,12.0
1989-08-26T12:11:39.760 ,4,0,0.,12.0,0.,12.0,0.,12.0,0.,12.0
1989-08-26T12:11:51.760 ,4,0,0.,12.0,0.,12.0,0.,12.0,0.,12.0
1989-08-26T12:12:03.760 ,3,1,0.,12.0,0.,12.0,0.,12.0,0.,12.0
1989-08-26T12:12:15.760 ,3,1,0.,12.0,0.,12.0,0.,12.0,0.,12.0
1989-08-26T12:12:27.760 ,3,0,0.,12.0,0.,12.0,0.,12.0,0.,12.0
1989-08-26T12:12:39.760 ,3,0,0.,12.0,0.,12.0,0.,12.0,0.,12.0
1989-08-26T12:12:51.760 ,2,1,0.,12.0,0.,12.0,0.,12.0,0.,12.0
1989-08-26T12:13:03.760 ,2,1,0.,12.0,0.,12.0,0.,12.0,0.,12.0
1989-08-26T12:13:15.760 ,2,0,0.,12.0,0.,12.0,0.,12.0,0.,12.0
1989-08-26T12:13:27.760 ,2,0,0.,12.0,0.,12.0,0.,12.0,0.,12.0
1989-08-26T12:13:39.760 ,1,1,0.,12.0,0.,12.0,0.,12.0,0.,12.0
1989-08-26T12:13:51.760 ,1,1,0.,12.0,0.,12.0,0.,12.0,0.,12.0
1989-08-26T12:14:03.760 ,1,0,0.,12.0,0.,12.0,0.,12.0,0.,12.0
1989-08-26T12:14:15.760 ,1,0,0.,12.0,0.,12.0,0.,12.0,0.,12.0
1989-08-26T12:14:27.760 ,0,1,0.,12.0,0.,12.0,0.,12.0,0.,12.0
1989-08-26T12:14:39.760 ,0,1,0.,12.0,0.,12.0,0.,12.0,0.,12.0
1989-08-26T12:14:51.760 ,0,0,0.,12.0,0.,12.0,0.,12.0,0.,12.0
1989-08-26T12:15:03.760 ,0,0,0.,12.0,0.,12.0,0.,12.0,0.,12.0
1989-08-26T12:15:15.760 ,0,1,0.,12.0,0.,12.0,0.,12.0,0.,12.0
1989-08-26T12:15:27.760 ,0,1,0.,12.0,0.,12.0,0.,12.0,0.,12.0
1989-08-26T12:15:39.760 ,0,0,0.,12.0,0.,12.0,0.,12.0,0.,12.0
1989-08-26T12:15:51.760 ,0,0,0.,12.0,0.,12.0,0.,12.0,0.,12.0
1989-08-26T12:16:03.760 ,1,1,0.,12.0,0.,12.0,0.,12.0,0.,12.0
1989-08-26T12:16:15.760 ,1,1,0.,12.0,0.,12.0,0.,12.0,0.,12.0
1989-08-26T12:16:27.760 ,1,0,0.,12.0,0.,12.0,0.,12.0,0.,12.0
1989-08-26T12:16:39.760 ,1,0,0.,12.0,0.,12.0,0.,12.0,0.,12.0
1989-08-26T12:16:51.760 ,2,1,0.,12.0,0.,12.0,0.,12.0,0.,12.0
1989-08-26T12:17:03.760 ,2,1,0.,12.0,0.,12.0,0.,12.0,0.,12.0
1989-08-26T12:17:15.760 ,2,0,0.,12.0,0.,12.0,0.,12.0,0.,12.0
1989-08-26T12:17:27.760 ,2,0,0.,12.0,0.,12.0,0.,12.0,0.,12.0
1989-08-26T12:17:39.760 ,3,1,0.,12.0,0.,12.0,0.,12.0,0.,12.0
1989-08-26T12:17:51.760 ,3,1,0.,12.0,0.,12.0,0.,12.0,0.,12.0
1989-08-26T12:18:03.760 ,3,0,0.,12.0,0.,12.0,0.,12.0,0.,12.0
1989-08-26T12:18:15.760 ,3,0,0.,12.0,0.,12.0,0.,12.0,0.,12.0
1989-08-26T12:18:27.760 ,4,1,0.,12.0,0.,12.0,0.,12.0,0.,12.0
1989-08-26T12:18:39.760 ,4,1,0.,12.0,0.,12.0,0.,12.0,0.,12.0
1989-08-26T12:18:51.760 ,4,0,0.,12.0,0.,12.0,0.,12.0,0.,12.0
1989-08-26T12:19:03.760 ,4,0,0.,12.0,0.,12.0,0.,12.0,0.,12.0
1989-08-26T12:19:15.760 ,5,1,0.,12.0,0.,12.0,0.,12.0,0.,12.0
1989-08-26T12:19:27.760 ,5,1,0.,12.0,0.,12.0,0.,12.0,0.,12.0
1989-08-26T12:19:39.760 ,5,0,0.,12.0,0.,12.0,0.,12.0,0.,12.0
1989-08-26T12:19:51.760 ,5,0,0.,12.0,0.,12.0,0.,12.0,0.,12.0
1989-08-26T12:20:03.760 ,6,1,0.,12.0,0.,12.0,0.,12.0,0.,12.0
1989-08-26T12:20:15.760 ,6,1,0.,12.0,0.,12.0,0.,12.0,0.,12.0
1989-08-26T12:20:27.760 ,0,0,0.,12.0,0.,12.0,0.,12.0,0.,12.0
1989-08-26T12:20:39.760 ,0,0,0.,12.0,0.,12.0,0.,12.0,0.,12.0
1989-08-26T12:21:36.160 ,0,0,,0,,0,,0,,0
1989-08-26T12:21:48.160 ,0,0,,0,,0,,0,,0
1989-08-26T12:21:39.760 ,7,1,0.,12.0,0.,12.0,0.,12.0,0.,12.0
1989-08-26T12:21:51.760 ,7,1,0.,12.0,0.,12.0,0.,12.0,0.,12.0
1989-08-26T12:22:03.760 ,7,0,0.,12.0,0.,12.0,0.,12.0,0.,12.0
1989-08-26T12:22:15.760 ,7,0,0.,12.0,0.,12.0,0.,12.0,0.,12.0
1989-08-26T12:22:27.760 ,6,1,0.,12.0,0.,12.0,0.,12.0,0.,12.0
1989-08-26T12:22:39.760 ,6,1,0.,12.0,0.,12.0,0.,12.0,0.,12.0
1989-08-26T12:22:51.760 ,6,0,0.,12.0,0.,12.0,0.,12.0,0.,12.0
1989-08-26T12:23:03.760 ,6,0,0.,12.0,0.,12.0,0.,12.0,0.,12.0
1989-08-26T12:23:15.760 ,5,1,0.,12.0,0.,12.0,0.,12.0,0.,12.0
1989-08-26T12:23:27.760 ,5,1,0.,12.0,0.,12.0,0.,12.0,0.,12.0
1989-08-26T12:23:39.760 ,5,0,0.,12.0,0.,12.0,0.,12.0,0.,12.0
1989-08-26T12:23:51.760 ,5,0,0.,12.0,0.,12.0,0.,12.0,0.,12.0
1989-08-26T12:24:03.760 ,4,1,0.,12.0,0.,12.0,0.,12.0,0.,12.0
1989-08-26T12:24:15.760 ,4,1,0.,12.0,0.,12.0,0.,12.0,0.,12.0
1989-08-26T12:24:27.760 ,4,0,0.,12.0,0.,12.0,0.,12.0,0.,12.0
1989-08-26T12:24:39.760 ,4,0,0.,12.0,0.,12.0,0.,12.0,0.,12.0
1989-08-26T12:24:51.760 ,3,1,0.,12.0,0.,12.0,0.,12.0,0.,12.0
1989-08-26T12:25:03.760 ,3,1,0.,12.0,0.,12.0,0.,12.0,0.,12.0
1989-08-26T12:25:15.760 ,3,0,0.,12.0,0.,12.0,0.,12.0,0.,12.0
1989-08-26T12:25:27.760 ,3,0,0.,12.0,0.,12.0,0.,12.0,0.,12.0
1989-08-26T12:25:39.760 ,2,1,0.,12.0,0.,12.0,0.,12.0,0.,12.0
1989-08-26T12:25:51.760 ,2,1,0.,12.0,0.,12.0,0.,12.0,0.,12.0
1989-08-26T12:26:03.760 ,2,0,0.,12.0,0.,12.0,0.,12.0,0.,12.0
1989-08-26T12:26:15.760 ,2,0,0.,12.0,0.,12.0,0.,12.0,0.,12.0
1989-08-26T12:26:27.760 ,1,1,0.,12.0,0.,12.0,0.,12.0,0.,12.0
1989-08-26T12:26:39.760 ,1,1,0.,12.0,0.,12.0,0.,12.0,0.,12.0
1989-08-26T12:26:51.760 ,1,0,0.,12.0,0.,12.0,0.,12.0,0.,12.0
1989-08-26T12:27:03.760 ,1,0,0.,12.0,0.,12.0,0.,12.0,0.,12.0
1989-08-26T12:27:15.760 ,0,1,0.,12.0,0.,12.0,0.,12.0,0.,12.0
1989-08-26T12:27:27.760 ,0,1,0.,12.0,0.,12.0,0.,12.0,0.,12.0
1989-08-26T12:27:39.760 ,0,0,0.,12.0,0.,12.0,0.,12.0,0.,12.0
1989-08-26T12:27:51.760 ,0,0,0.,12.0,0.,12.0,0.,12.0,0.,12.0
1989-08-26T12:28:03.760 ,0,1,0.,12.0,0.,12.0,0.,12.0,0.,12.0
1989-08-26T12:28:15.760 ,0,1,0.,12.0,0.,12.0,0.,12.0,0.,12.0
1989-08-26T12:28:27.760 ,0,0,0.,12.0,0.,12.0,0.,12.0,0.,12.0
1989-08-26T12:28:39.760 ,0,0,0.,12.0,0.,12.0,0.,12.0,0.,12.0
1989-08-26T12:28:51.760 ,1,1,0.,12.0,0.,12.0,0.,12.0,0.,12.0
1989-08-26T12:29:03.760 ,1,1,0.,12.0,0.,12.0,0.,12.0,0.,12.0
1989-08-26T12:29:15.760 ,1,0,0.,12.0,0.,12.0,0.,12.0,0.,12.0
1989-08-26T12:29:27.760 ,1,0,0.,12.0,0.,12.0,0.,12.0,0.,12.0
1989-08-26T12:29:39.760 ,2,1,0.,12.0,0.,12.0,0.,12.0,0.,12.0
1989-08-26T12:29:51.760 ,2,1,0.,12.0,0.,12.0,0.,12.0,0.,12.0
1989-08-26T12:30:03.760 ,2,0,0.,12.0,0.,12.0,0.,12.0,0.,12.0
1989-08-26T12:30:15.760 ,2,0,0.,12.0,0.,12.0,0.,12.0,0.,12.0
1989-08-26T12:30:27.760 ,3,1,0.,12.0,0.,12.0,0.,12.0,0.,12.0
1989-08-26T12:30:39.760 ,3,1,0.,12.0,0.,12.0,0.,12.0,0.,12.0
1989-08-26T12:30:51.760 ,3,0,0.,12.0,0.,12.0,0.,12.0,0.,12.0
1989-08-26T12:31:03.760 ,3,0,0.,12.0,0.,12.0,0.,12.0,0.,12.0
1989-08-26T12:31:15.760 ,4,1,0.,12.0,0.,12.0,0.,12.0,0.,12.0
1989-08-26T12:31:27.760 ,4,1,0.,12.0,0.,12.0,0.,12.0,0.,12.0
1989-08-26T12:31:39.760 ,4,0,0.,12.0,0.,12.0,0.,12.0,0.,12.0
1989-08-26T12:31:51.760 ,4,0,0.,12.0,0.,12.0,0.,12.0,0.,12.0
1989-08-26T12:32:03.760 ,5,1,0.,12.0,0.,12.0,0.,12.0,0.,12.0
1989-08-26T12:32:15.760 ,5,1,0.,12.0,0.,12.0,0.,12.0,0.,12.0
1989-08-26T12:32:27.760 ,5,0,0.,12.0,0.,12.0,0.,12.0,0.,12.0
1989-08-26T12:32:39.760 ,5,0,0.,12.0,0.,12.0,0.,12.0,0.,12.0
1989-08-26T12:32:51.760 ,6,1,0.,12.0,0.,12.0,0.,12.0,0.,12.0
1989-08-26T12:33:03.760 ,6,1,0.,12.0,0.,12.0,0.,12.0,0.,12.0
1989-08-26T12:33:15.760 ,6,0,0.,12.0,0.,12.0,0.,12.0,0.,12.0
1989-08-26T12:33:27.760 ,6,0,0.,12.0,0.,12.0,0.,12.0,0.,12.0
1989-08-26T12:33:39.760 ,7,1,0.,12.0,0.,12.0,0.,12.0,0.,12.0
1989-08-26T12:33:51.760 ,7,1,0.,12.0,0.,12.0,0.,12.0,0.,12.0
1989-08-26T12:34:03.760 ,7,0,0.,12.0,0.,12.0,0.,12.0,0.,12.0
1989-08-26T12:34:15.760 ,7,0,0.,12.0,0.,12.0,0.,12.0,0.,12.0
1989-08-26T12:34:27.760 ,7,1,0.,12.0,0.,12.0,0.,12.0,0.,12.0
1989-08-26T12:34:39.760 ,7,1,0.,12.0,0.,12.0,0.,12.0,0.,12.0
1989-08-26T12:34:51.760 ,7,0,0.,12.0,0.,12.0,0.,12.0,0.,12.0
1989-08-26T12:35:03.760 ,7,0,0.,12.0,0.,12.0,0.,12.0,0.,12.0
1989-08-26T12:35:15.760 ,6,1,0.,12.0,0.,12.0,0.,12.0,0.,12.0
1989-08-26T12:35:27.760 ,6,1,0.,12.0,0.,12.0,0.,12.0,0.,12.0
1989-08-26T12:35:39.760 ,6,0,0.,12.0,0.,12.0,0.,12.0,0.,12.0
1989-08-26T12:35:51.760 ,6,0,0.,12.0,0.,12.0,0.,12.0,0.,12.0
1989-08-26T12:36:03.760 ,5,1,0.,12.0,0.,12.0,0.,12.0,0.,12.0
1989-08-26T12:36:15.760 ,5,1,0.,12.0,0.,12.0,0.,12.0,0.,12.0
1989-08-26T12:36:27.760 ,5,0,0.,12.0,0.,12.0,0.,12.0,0.,12.0
1989-08-26T12:36:39.760 ,5,0,0.,12.0,0.,12.0,0.,12.0,0.,12.0
1989-08-26T12:36:51.760 ,4,1,0.,12.0,0.,12.0,0.,12.0,0.,12.0
1989-08-26T12:37:03.760 ,4,1,0.,12.0,0.,12.0,0.,12.0,0.,12.0
1989-08-26T12:37:15.760 ,4,0,0.,12.0,0.,12.0,0.,12.0,0.,12.0
1989-08-26T12:37:27.760 ,4,0,0.,12.0,0.,12.0,0.,12.0,0.,12.0
1989-08-26T12:37:39.760 ,3,1,0.,12.0,0.,12.0,0.,12.0,0.,12.0
1989-08-26T12:37:51.760 ,3,1,0.,12.0,0.,12.0,0.,12.0,0.,12.0
1989-08-26T12:38:03.760 ,3,0,0.,12.0,0.,12.0,0.,12.0,0.,12.0
1989-08-26T12:38:15.760 ,3,0,0.,12.0,0.,12.0,0.,12.0,0.,12.0
1989-08-26T12:38:27.760 ,2,1,0.,12.0,0.,12.0,0.,12.0,0.,12.0
1989-08-26T12:38:39.760 ,2,1,0.,12.0,0.,12.0,0.,12.0,0.,12.0
1989-08-26T12:38:51.760 ,2,0,0.,12.0,0.,12.0,0.,12.0,0.,12.0
1989-08-26T12:39:03.760 ,2,0,0.,12.0,0.,12.0,0.,12.0,0.,12.0
1989-08-26T12:39:15.760 ,1,1,0.,12.0,0.,12.0,0.,12.0,0.,12.0
1989-08-26T12:39:27.760 ,1,1,0.,12.0,0.,12.0,0.,12.0,0.,12.0
1989-08-26T12:39:39.760 ,1,0,0.,12.0,0.,12.0,0.,12.0,0.,12.0
1989-08-26T12:39:51.760 ,1,0,0.,12.0,0.,12.0,0.,12.0,0.,12.0
1989-08-26T12:40:03.760 ,0,1,0.,12.0,0.,12.0,0.,12.0,0.,12.0
1989-08-26T12:40:15.760 ,0,1,0.,12.0,0.,12.0,0.,12.0,0.,12.0
1989-08-26T12:40:27.760 ,0,0,0.,12.0,0.,12.0,0.,12.0,0.,12.0
1989-08-26T12:40:39.760 ,0,0,,0,,0,,0,,0
1989-08-26T12:40:39.760 ,0,0,,0,,0,,0,,0
1989-08-26T12:40:51.760 ,0,0,0.,12.0,0.,12.0,0.,12.0,0.,12.0
1989-08-26T12:40:51.760 ,0,1,0.,12.0,0.,12.0,0.,12.0,0.,12.0
1989-08-26T12:41:03.760 ,0,1,0.,12.0,0.,12.0,0.,12.0,0.,12.0
1989-08-26T12:41:15.760 ,0,0,0.,12.0,0.,12.0,0.,12.0,0.,12.0
1989-08-26T12:41:27.760 ,0,0,0.,12.0,0.,12.0,0.,12.0,0.,12.0
1989-08-26T12:41:39.760 ,1,1,0.,12.0,0.,12.0,0.,12.0,0.,12.0
1989-08-26T12:41:51.760 ,1,1,0.,12.0,0.,12.0,0.,12.0,0.,12.0
1989-08-26T12:42:03.760 ,0,0,0.,12.0,0.,12.0,0.,12.0,0.,12.0
1989-08-26T12:42:15.760 ,0,0,0.,12.0,0.,12.0,0.,12.0,0.,12.0
1989-08-26T12:42:21.760 ,0,0,,0,,0,,0,,0
1989-08-26T12:42:33.760 ,0,0,,0,,0,,0,,0
1989-08-26T12:42:27.760 ,2,1,0.,12.0,0.,12.0,0.,12.0,0.,12.0
1989-08-26T12:42:39.760 ,2,1,0.,12.0,0.,12.0,0.,12.0,0.,12.0
1989-08-26T12:42:51.760 ,2,0,0.,12.0,0.,12.0,0.,12.0,0.,12.0
1989-08-26T12:43:03.760 ,2,0,0.,12.0,0.,12.0,0.,12.0,0.,12.0
1989-08-26T12:43:15.760 ,3,1,0.,12.0,0.,12.0,0.,12.0,0.,12.0
1989-08-26T12:43:27.760 ,3,1,0.,12.0,0.,12.0,0.,12.0,0.,12.0
1989-08-26T12:43:39.760 ,0,0,0.,12.0,0.,12.0,0.,12.0,0.,12.0
1989-08-26T12:43:51.760 ,0,0,,0,,0,,0,,0
1989-08-26T12:43:50.560 ,0,0,,0,,0,,0,,0
1989-08-26T12:44:02.560 ,0,0,0.,12.0,0.,12.0,0.,12.0,0.,12.0
1989-08-26T12:44:03.760 ,4,1,0.,12.0,0.,12.0,0.,12.0,0.,12.0
1989-08-26T12:44:15.760 ,4,1,0.,12.0,0.,12.0,0.,12.0,0.,12.0
1989-08-26T12:44:27.760 ,4,0,0.,12.0,0.,12.0,0.,12.0,0.,12.0
1989-08-26T12:44:39.760 ,4,0,0.,12.0,0.,12.0,0.,12.0,0.,12.0
1989-08-26T12:44:51.760 ,5,1,0.,12.0,0.,12.0,0.,12.0,0.,12.0
1989-08-26T12:45:03.760 ,5,1,0.,12.0,0.,12.0,0.,12.0,0.,12.0
1989-08-26T12:45:15.760 ,5,0,0.,12.0,0.,12.0,0.,12.0,0.,12.0
1989-08-26T12:45:27.760 ,5,0,0.,12.0,0.,12.0,0.,12.0,0.,12.0
1989-08-26T12:45:39.760 ,6,1,0.,12.0,0.,12.0,0.,12.0,0.,12.0
1989-08-26T12:45:51.760 ,6,1,0.,12.0,0.,12.0,0.,12.0,0.,12.0
1989-08-26T12:46:03.760 ,6,0,0.,12.0,0.,12.0,0.,12.0,0.,12.0
1989-08-26T12:46:15.760 ,6,0,0.,12.0,0.,12.0,0.,12.0,0.,12.0
1989-08-26T12:46:27.760 ,7,1,0.,12.0,0.,12.0,0.,12.0,0.,12.0
1989-08-26T12:46:39.760 ,7,1,0.,12.0,0.,12.0,0.,12.0,0.,12.0
1989-08-26T12:46:51.760 ,7,0,0.,12.0,0.,12.0,0.,12.0,0.,12.0
1989-08-26T12:47:03.760 ,7,0,0.,12.0,0.,12.0,0.,12.0,0.,12.0
1989-08-26T12:47:15.760 ,7,1,0.,12.0,0.,12.0,0.,12.0,0.,12.0
1989-08-26T12:47:27.760 ,7,1,0.,12.0,0.,12.0,0.,12.0,0.,12.0
1989-08-26T12:47:39.760 ,7,0,0.,12.0,0.,12.0,0.,12.0,0.,12.0
1989-08-26T12:47:51.760 ,7,0,0.,12.0,0.,12.0,0.,12.0,0.,12.0
1989-08-26T12:48:03.760 ,6,1,0.,12.0,0.,12.0,0.,12.0,0.,12.0
1989-08-26T12:48:15.760 ,6,1,0.,12.0,0.,12.0,0.,12.0,0.,12.0
1989-08-26T12:48:27.760 ,6,0,0.,12.0,0.,12.0,0.,12.0,0.,12.0
1989-08-26T12:48:39.760 ,6,0,0.,12.0,0.,12.0,0.,12.0,0.,12.0
1989-08-26T12:48:51.760 ,5,1,0.,12.0,0.,12.0,0.,12.0,0.,12.0
1989-08-26T12:49:03.760 ,5,1,0.,12.0,0.,12.0,0.,12.0,0.,12.0
1989-08-26T12:49:15.760 ,5,0,0.,12.0,0.,12.0,0.,12.0,0.,12.0
1989-08-26T12:49:27.760 ,5,0,0.,12.0,0.,12.0,0.,12.0,0.,12.0
1989-08-26T12:49:39.760 ,4,1,0.,12.0,0.,12.0,0.,12.0,0.,12.0
1989-08-26T12:49:51.760 ,4,1,0.,12.0,0.,12.0,0.,12.0,0.,12.0
1989-08-26T12:50:03.760 ,4,0,0.,12.0,0.,12.0,0.,12.0,0.,12.0
1989-08-26T12:50:15.760 ,4,0,0.,12.0,0.,12.0,0.,12.0,0.,12.0
1989-08-26T12:50:27.760 ,3,1,0.,12.0,0.,12.0,0.,12.0,0.,12.0
1989-08-26T12:50:39.760 ,3,1,0.,12.0,0.,12.0,0.,12.0,0.,12.0
1989-08-26T12:50:51.760 ,3,0,0.,12.0,0.,12.0,0.,12.0,0.,12.0
1989-08-26T12:51:03.760 ,3,0,0.,12.0,0.,12.0,0.,12.0,0.,12.0
1989-08-26T12:51:15.760 ,2,1,0.,12.0,0.,12.0,0.,12.0,0.,12.0
1989-08-26T12:51:27.760 ,2,1,0.,12.0,0.,12.0,0.,12.0,0.,12.0
1989-08-26T12:51:39.760 ,2,0,0.,12.0,0.,12.0,0.,12.0,0.,12.0
1989-08-26T12:51:51.760 ,2,0,0.,12.0,0.,12.0,0.,12.0,0.,12.0
1989-08-26T12:52:03.760 ,1,1,0.,12.0,0.,12.0,0.,12.0,0.,12.0
1989-08-26T12:52:15.760 ,1,1,0.,12.0,0.,12.0,0.,12.0,0.,12.0
1989-08-26T12:52:27.760 ,1,0,0.,12.0,0.,12.0,0.,12.0,0.,12.0
1989-08-26T12:52:39.760 ,1,0,0.,12.0,0.,12.0,0.,12.0,0.,12.0
1989-08-26T12:52:51.760 ,0,1,0.,12.0,0.,12.0,0.,12.0,0.,12.0
1989-08-26T12:53:03.760 ,0,1,0.,12.0,0.,12.0,0.,12.0,0.,12.0
1989-08-26T12:53:15.760 ,0,0,0.,12.0,0.,12.0,0.,12.0,0.,12.0
1989-08-26T12:53:27.760 ,0,0,0.,12.0,0.,12.0,0.,12.0,0.,12.0
1989-08-26T12:53:39.760 ,0,1,0.,12.0,0.,12.0,0.,12.0,0.,12.0
1989-08-26T12:53:51.760 ,0,1,0.,12.0,0.,12.0,0.,12.0,0.,12.0
1989-08-26T12:54:03.760 ,0,0,0.,12.0,0.,12.0,0.,12.0,0.,12.0
1989-08-26T12:54:15.760 ,0,0,0.,12.0,0.,12.0,0.,12.0,0.,12.0
1989-08-26T12:54:27.760 ,1,1,0.,12.0,0.,12.0,0.,12.0,0.,12.0
1989-08-26T12:54:39.760 ,1,1,0.,12.0,0.,12.0,0.,12.0,0.,12.0
1989-08-26T12:54:51.760 ,0,0,0.,12.0,0.,12.0,0.,12.0,0.,12.0
1989-08-26T12:55:03.760 ,0,0,0.,12.0,0.,12.0,0.,12.0,0.,12.0
1989-08-26T12:56:00.160 ,0,0,,0,,0,,0,,0
1989-08-26T12:56:12.160 ,0,0,,0,,0,,0,,0
1989-08-26T12:56:03.760 ,3,1,0.,12.0,0.,12.0,0.,12.0,0.,12.0
1989-08-26T12:56:15.760 ,3,1,0.,12.0,0.,12.0,0.,12.0,0.,12.0
1989-08-26T12:56:27.760 ,3,0,0.,12.0,0.,12.0,0.,12.0,0.,12.0
1989-08-26T12:56:39.760 ,3,0,0.,12.0,0.,12.0,0.,12.0,0.,12.0
1989-08-26T12:56:51.760 ,4,1,0.,12.0,0.,12.0,0.,12.0,0.,12.0
1989-08-26T12:57:03.760 ,4,1,0.,12.0,0.,12.0,0.,12.0,0.,12.0
1989-08-26T12:57:15.760 ,4,0,0.,12.0,0.,12.0,0.,12.0,0.,12.0
1989-08-26T12:57:27.760 ,4,0,0.,12.0,0.,12.0,0.,12.0,0.,12.0
1989-08-26T12:57:39.760 ,5,1,0.,12.0,0.,12.0,0.,12.0,0.,12.0
1989-08-26T12:57:51.760 ,5,1,0.,12.0,0.,12.0,0.,12.0,0.,12.0
1989-08-26T12:58:03.760 ,5,0,0.,12.0,0.,12.0,0.,12.0,0.,12.0
1989-08-26T12:58:15.760 ,5,0,0.,12.0,0.,12.0,0.,12.0,0.,12.0
1989-08-26T12:58:27.760 ,6,1,0.,12.0,0.,12.0,0.,12.0,0.,12.0
1989-08-26T12:58:39.760 ,6,1,0.,12.0,0.,12.0,0.,12.0,0.,12.0
1989-08-26T12:58:51.760 ,6,0,0.,12.0,0.,12.0,0.,12.0,0.,12.0
1989-08-26T12:59:03.760 ,6,0,0.,12.0,0.,12.0,0.,12.0,0.,12.0
1989-08-26T12:59:15.760 ,7,1,0.,12.0,0.,12.0,0.,12.0,0.,12.0
1989-08-26T12:59:27.760 ,7,1,0.,12.0,0.,12.0,0.,12.0,0.,12.0
1989-08-26T12:59:39.760 ,7,0,0.,12.0,0.,12.0,0.,12.0,0.,12.0
1989-08-26T12:59:51.760 ,7,0,0.,12.0,0.,12.0,0.,12.0,0.,12.0
1989-08-26T13:00:03.760 ,7,1,0.,12.0,0.,12.0,0.,12.0,0.,12.0
1989-08-26T13:00:15.760 ,7,1,0.,12.0,0.,12.0,0.,12.0,0.,12.0
1989-08-26T13:00:27.760 ,7,0,0.,12.0,0.,12.0,0.,12.0,0.,12.0
1989-08-26T13:00:39.760 ,7,0,0.,12.0,0.,12.0,0.,12.0,0.,12.0
1989-08-26T13:00:51.760 ,6,1,0.,12.0,0.,12.0,0.,12.0,0.,12.0
1989-08-26T13:01:03.760 ,6,1,0.,12.0,0.,12.0,0.,12.0,0.,12.0
1989-08-26T13:01:15.760 ,6,0,0.,12.0,0.,12.0,0.,12.0,0.,12.0
1989-08-26T13:01:27.760 ,6,0,0.,12.0,0.,12.0,0.,12.0,0.,12.0
1989-08-26T13:01:39.760 ,5,1,0.,12.0,0.,12.0,0.,12.0,0.,12.0
1989-08-26T13:01:51.760 ,5,1,0.,12.0,0.,12.0,0.,12.0,0.,12.0
1989-08-26T13:02:03.760 ,5,0,0.,12.0,0.,12.0,0.,12.0,0.,12.0
1989-08-26T13:02:15.760 ,5,0,0.,12.0,0.,12.0,0.,12.0,0.,12.0
1989-08-26T13:02:27.760 ,4,1,0.,12.0,0.,12.0,0.,12.0,0.,12.0
1989-08-26T13:02:39.760 ,4,1,0.,12.0,0.,12.0,0.,12.0,0.,12.0
1989-08-26T13:02:51.760 ,4,0,0.,12.0,0.,12.0,0.,12.0,0.,12.0
1989-08-26T13:03:03.760 ,4,0,0.,12.0,0.,12.0,0.,12.0,0.,12.0
1989-08-26T13:03:15.760 ,3,1,0.,12.0,0.,12.0,0.,12.0,0.,12.0
1989-08-26T13:03:27.760 ,3,1,0.,12.0,0.,12.0,0.,12.0,0.,12.0
1989-08-26T13:03:39.760 ,3,0,0.,12.0,0.,12.0,0.,12.0,0.,12.0
1989-08-26T13:03:51.760 ,3,0,0.,12.0,0.,12.0,0.,12.0,0.,12.0
1989-08-26T13:04:03.760 ,2,1,0.,12.0,0.,12.0,0.,12.0,0.,12.0
1989-08-26T13:04:15.760 ,2,1,0.,12.0,0.,12.0,0.,12.0,0.,12.0
1989-08-26T13:04:27.760 ,2,0,0.,12.0,0.,12.0,0.,12.0,0.,12.0
1989-08-26T13:04:39.760 ,2,0,0.,12.0,0.,12.0,0.,12.0,0.,12.0
1989-08-26T13:04:51.760 ,1,1,0.,12.0,0.,12.0,0.,12.0,0.,12.0
1989-08-26T13:05:03.760 ,1,1,0.,12.0,0.,12.0,0.,12.0,0.,12.0
1989-08-26T13:05:15.760 ,1,0,0.,12.0,0.,12.0,0.,12.0,0.,12.0
1989-08-26T13:05:27.760 ,1,0,0.,12.0,0.,12.0,0.,12.0,0.,12.0
1989-08-26T13:05:39.760 ,0,1,0.,12.0,0.,12.0,0.,12.0,0.,12.0
1989-08-26T13:05:51.760 ,0,1,1.,12.0,0.,12.0,0.,12.0,0.,12.0
1989-08-26T13:06:03.760 ,0,0,0.,12.0,0.,12.0,0.,12.0,0.,12.0
1989-08-26T13:06:15.760 ,0,0,0.,12.0,0.,12.0,0.,12.0,0.,12.0
1989-08-26T13:06:27.760 ,0,1,0.,12.0,0.,12.0,0.,12.0,0.,12.0
1989-08-26T13:06:39.760 ,0,1,0.,12.0,0.,12.0,0.,12.0,0.,12.0
1989-08-26T13:06:51.760 ,0,0,0.,12.0,0.,12.0,0.,12.0,0.,12.0
1989-08-26T13:07:03.760 ,0,0,0.,12.0,0.,12.0,0.,12.0,0.,12.0
1989-08-26T13:07:15.760 ,1,1,0.,12.0,0.,12.0,0.,12.0,0.,12.0
1989-08-26T13:07:27.760 ,1,1,0.,12.0,0.,12.0,0.,12.0,0.,12.0
1989-08-26T13:07:39.760 ,1,0,0.,12.0,0.,12.0,0.,12.0,0.,12.0
1989-08-26T13:07:51.760 ,1,0,0.,12.0,0.,12.0,0.,12.0,0.,12.0
1989-08-26T13:08:03.760 ,2,1,0.,12.0,0.,12.0,0.,12.0,0.,12.0
1989-08-26T13:08:15.760 ,2,1,0.,12.0,0.,12.0,0.,12.0,0.,12.0
1989-08-26T13:08:27.760 ,2,0,0.,12.0,0.,12.0,0.,12.0,0.,12.0
1989-08-26T13:08:39.760 ,2,0,0.,12.0,0.,12.0,0.,12.0,0.,12.0
1989-08-26T13:08:51.760 ,3,1,0.,12.0,0.,12.0,0.,12.0,0.,12.0
1989-08-26T13:09:03.760 ,3,1,0.,12.0,0.,12.0,0.,12.0,0.,12.0
1989-08-26T13:09:15.760 ,3,0,0.,12.0,0.,12.0,0.,12.0,0.,12.0
1989-08-26T13:09:27.760 ,3,0,0.,12.0,0.,12.0,0.,12.0,0.,12.0
1989-08-26T13:09:39.760 ,4,1,0.,12.0,0.,12.0,0.,12.0,0.,12.0
1989-08-26T13:09:51.760 ,4,1,0.,12.0,0.,12.0,0.,12.0,0.,12.0
1989-08-26T13:10:03.760 ,4,0,0.,12.0,0.,12.0,0.,12.0,0.,12.0
1989-08-26T13:10:15.760 ,4,0,0.,12.0,0.,12.0,0.,12.0,0.,12.0
1989-08-26T13:10:27.760 ,5,1,0.,12.0,0.,12.0,0.,12.0,0.,12.0
1989-08-26T13:10:39.760 ,5,1,0.,12.0,0.,12.0,0.,12.0,0.,12.0
1989-08-26T13:10:51.760 ,5,0,0.,12.0,0.,12.0,0.,12.0,0.,12.0
1989-08-26T13:11:03.760 ,5,0,0.,12.0,0.,12.0,0.,12.0,0.,12.0
1989-08-26T13:11:15.760 ,6,1,0.,12.0,0.,12.0,0.,12.0,0.,12.0
1989-08-26T13:11:27.760 ,6,1,0.,12.0,0.,12.0,0.,12.0,0.,12.0
1989-08-26T13:11:39.760 ,6,0,0.,12.0,0.,12.0,0.,12.0,0.,12.0
1989-08-26T13:11:51.760 ,6,0,0.,12.0,0.,12.0,0.,12.0,0.,12.0
1989-08-26T13:12:03.760 ,7,1,0.,12.0,0.,12.0,0.,12.0,0.,12.0
1989-08-26T13:12:15.760 ,7,1,0.,12.0,0.,12.0,0.,12.0,0.,12.0
1989-08-26T13:12:27.760 ,7,0,0.,12.0,0.,12.0,0.,12.0,0.,12.0
1989-08-26T13:12:39.760 ,7,0,0.,12.0,0.,12.0,0.,12.0,0.,12.0
1989-08-26T13:12:51.760 ,7,1,0.,12.0,0.,12.0,0.,12.0,0.,12.0
1989-08-26T13:13:03.760 ,7,1,0.,12.0,0.,12.0,0.,12.0,0.,12.0
1989-08-26T13:13:15.760 ,7,0,0.,12.0,0.,12.0,0.,12.0,0.,12.0
1989-08-26T13:13:27.760 ,7,0,0.,12.0,0.,12.0,0.,12.0,0.,12.0
1989-08-26T13:13:39.760 ,6,1,0.,12.0,0.,12.0,0.,12.0,0.,12.0
1989-08-26T13:13:51.760 ,6,1,0.,12.0,0.,12.0,0.,12.0,0.,12.0
1989-08-26T13:14:03.760 ,6,0,0.,12.0,0.,12.0,0.,12.0,0.,12.0
1989-08-26T13:14:15.760 ,6,0,0.,12.0,0.,12.0,0.,12.0,0.,12.0
1989-08-26T13:14:27.760 ,5,1,0.,12.0,0.,12.0,0.,12.0,0.,12.0
1989-08-26T13:14:39.760 ,5,1,0.,12.0,0.,12.0,0.,12.0,0.,12.0
1989-08-26T13:14:51.760 ,5,0,0.,12.0,0.,12.0,0.,12.0,0.,12.0
1989-08-26T13:15:03.760 ,5,0,0.,12.0,0.,12.0,0.,12.0,0.,12.0
1989-08-26T13:15:15.760 ,4,1,0.,12.0,0.,12.0,0.,12.0,0.,12.0
1989-08-26T13:15:27.760 ,4,1,0.,12.0,0.,12.0,0.,12.0,0.,12.0
1989-08-26T13:15:39.760 ,4,0,0.,12.0,0.,12.0,0.,12.0,0.,12.0
1989-08-26T13:15:51.760 ,4,0,0.,12.0,0.,12.0,0.,12.0,0.,12.0
1989-08-26T13:16:03.760 ,3,1,0.,12.0,0.,12.0,0.,12.0,0.,12.0
1989-08-26T13:16:15.760 ,3,1,0.,12.0,0.,12.0,0.,12.0,0.,12.0
1989-08-26T13:16:27.760 ,3,0,0.,12.0,0.,12.0,0.,12.0,0.,12.0
1989-08-26T13:16:39.760 ,3,0,0.,12.0,0.,12.0,0.,12.0,0.,12.0
1989-08-26T13:16:51.760 ,2,1,0.,12.0,0.,12.0,0.,12.0,0.,12.0
1989-08-26T13:17:03.760 ,2,1,0.,12.0,0.,12.0,0.,12.0,0.,12.0
1989-08-26T13:17:15.760 ,2,0,0.,12.0,0.,12.0,0.,12.0,0.,12.0
1989-08-26T13:17:27.760 ,2,0,0.,12.0,0.,12.0,0.,12.0,0.,12.0
1989-08-26T13:17:39.760 ,1,1,0.,12.0,0.,12.0,0.,12.0,0.,12.0